When you browse on this site, cookies collect data to enhance your experience and personalize the content and advertising you see.
Visit our Privacy Policy to learn more. By continuing to use the site, you agree to this use of cookies and data.

Hourly Weather Gritchino

Today, 2 July, Thursday

Time Temperature Precipitation Wind Pressure Humidity
00:00 +16°C° 0 mm 3 mps 740 mmHg 88%
01:00 +14°C° 0 mm 3 mps 740 mmHg 90%
02:00 +14°C° 0 mm 3 mps 740 mmHg 92%
03:00 +13°C° 0 mm 3 mps 740 mmHg 94%
04:00 +14°C° 0 mm 3 mps 740 mmHg 93%
05:00 +16°C° 0 mm 3 mps 740 mmHg 92%
06:00 +16°C° 0 mm 2 mps 741 mmHg 91%
07:00 +18°C° 0 mm 3 mps 741 mmHg 86%
08:00 +20°C° 0 mm 3 mps 741 mmHg 81%
09:00 +21°C° 0 mm 3 mps 741 mmHg 77%
10:00 +22°C° 0 mm 3 mps 741 mmHg 74%
11:00 +24°C° 0 mm 3 mps 741 mmHg 71%
12:00 +25°C° 0 mm 4 mps 741 mmHg 68%
13:00 +25°C° 0.3 mm 4 mps 741 mmHg 69%
14:00 +25°C° 0.3 mm 4 mps 741 mmHg 69%
15:00 +25°C° 0.3 mm 4 mps 741 mmHg 70%
16:00 +25°C° 0.2 mm 4 mps 741 mmHg 73%
17:00 +25°C° 0.2 mm 4 mps 741 mmHg 76%
18:00 +25°C° 0.2 mm 4 mps 741 mmHg 79%
19:00 +24°C° 0.1 mm 3 mps 741 mmHg 82%
20:00 +21°C° 0.1 mm 3 mps 741 mmHg 85%
21:00 +20°C° 0.1 mm 3 mps 741 mmHg 88%
22:00 +20°C° 0 mm 3 mps 741 mmHg 89%
23:00 +20°C° 0 mm 3 mps 741 mmHg 90%

Tomorrow, 3 July, Friday

Time Temperature Precipitation Wind Pressure Humidity
00:00 +19°C° 0 mm 3 mps 740 mmHg 92%
01:00 +19°C° 0 mm 3 mps 740 mmHg 93%
02:00 +19°C° 0 mm 3 mps 741 mmHg 94%
03:00 +19°C° 0 mm 3 mps 741 mmHg 95%
04:00 +19°C° 0 mm 3 mps 741 mmHg 95%
05:00 +19°C° 0 mm 4 mps 741 mmHg 94%
06:00 +20°C° 0 mm 4 mps 741 mmHg 94%
07:00 +21°C° 0 mm 4 mps 741 mmHg 91%
08:00 +22°C° 0 mm 4 mps 741 mmHg 87%
09:00 +25°C° 0 mm 4 mps 742 mmHg 84%
10:00 +25°C° 0.6 mm 4 mps 742 mmHg 82%
11:00 +26°C° 0.6 mm 4 mps 742 mmHg 80%
12:00 +26°C° 0.6 mm 4 mps 742 mmHg 78%
13:00 +27°C° 0.5 mm 3 mps 742 mmHg 75%
14:00 +27°C° 0.5 mm 3 mps 742 mmHg 73%
15:00 +28°C° 0.5 mm 3 mps 742 mmHg 70%
16:00 +28°C° 0.5 mm 3 mps 742 mmHg 73%
17:00 +27°C° 0.5 mm 2 mps 742 mmHg 75%
18:00 +27°C° 0.5 mm 2 mps 742 mmHg 77%
19:00 +26°C° 0.4 mm 2 mps 742 mmHg 79%
20:00 +24°C° 0.4 mm 2 mps 742 mmHg 81%
21:00 +21°C° 0.4 mm 2 mps 742 mmHg 82%
22:00 +21°C° 0.1 mm 2 mps 742 mmHg 84%
23:00 +20°C° 0.1 mm 2 mps 742 mmHg 85%

Day after tomorrow, 4 July, Saturday

Time Temperature Precipitation Wind Pressure Humidity
00:00 +19°C° 0.1 mm 2 mps 742 mmHg 87%
01:00 +19°C° 0 mm 2 mps 742 mmHg 89%
02:00 +19°C° 0 mm 2 mps 742 mmHg 92%
03:00 +19°C° 0 mm 3 mps 742 mmHg 94%
04:00 +19°C° 0 mm 3 mps 741 mmHg 93%
05:00 +20°C° 0 mm 3 mps 741 mmHg 93%
06:00 +20°C° 0 mm 4 mps 741 mmHg 92%
07:00 +22°C° 0.2 mm 4 mps 741 mmHg 89%
08:00 +23°C° 0.2 mm 4 mps 741 mmHg 85%
09:00 +25°C° 0.2 mm 5 mps 741 mmHg 82%
10:00 +26°C° 0.5 mm 5 mps 741 mmHg 79%
11:00 +26°C° 0.5 mm 5 mps 741 mmHg 77%
12:00 +27°C° 0.5 mm 5 mps 741 mmHg 74%
13:00 +27°C° 0.4 mm 5 mps 741 mmHg 74%
14:00 +27°C° 0.4 mm 4 mps 741 mmHg 74%
15:00 +27°C° 0.4 mm 4 mps 741 mmHg 73%
16:00 +27°C° 0.3 mm 4 mps 741 mmHg 76%
17:00 +26°C° 0.3 mm 3 mps 741 mmHg 79%
18:00 +26°C° 0.3 mm 3 mps 741 mmHg 82%
19:00 +25°C° 0.2 mm 2 mps 741 mmHg 85%
20:00 +24°C° 0.2 mm 2 mps 741 mmHg 87%
21:00 +21°C° 0.2 mm 2 mps 741 mmHg 90%
22:00 +21°C° 0 mm 2 mps 741 mmHg 91%
23:00 +20°C° 0 mm 2 mps 741 mmHg 92%

5 July, Sunday

Time Temperature Precipitation Wind Pressure Humidity
00:00 +20°C° 0 mm 2 mps 741 mmHg 93%
01:00 +20°C° 0.2 mm 2 mps 741 mmHg 94%
02:00 +19°C° 0.2 mm 2 mps 741 mmHg 94%
03:00 +19°C° 0.2 mm 2 mps 741 mmHg 95%
04:00 +19°C° 0.6 mm 2 mps 741 mmHg 96%
05:00 +19°C° 0.6 mm 2 mps 741 mmHg 97%
06:00 +19°C° 0.6 mm 2 mps 741 mmHg 98%
07:00 +21°C° 0.3 mm 1 mps 742 mmHg 94%
08:00 +22°C° 0.3 mm 1 mps 742 mmHg 91%
09:00 +23°C° 0.3 mm 1 mps 742 mmHg 87%
10:00 +24°C° 0.4 mm 1 mps 742 mmHg 82%
11:00 +25°C° 0.4 mm 2 mps 742 mmHg 77%
12:00 +26°C° 0.4 mm 2 mps 742 mmHg 71%
13:00 +27°C° 0 mm 1 mps 742 mmHg 69%
14:00 +27°C° 0 mm 1 mps 741 mmHg 66%
15:00 +27°C° 0 mm 1 mps 741 mmHg 64%
16:00 +27°C° 0.1 mm 1 mps 741 mmHg 67%
17:00 +27°C° 0.1 mm 1 mps 741 mmHg 69%
18:00 +25°C° 0.1 mm 0 mps 741 mmHg 72%
19:00 +25°C° 0.4 mm 1 mps 741 mmHg 76%
20:00 +24°C° 0.4 mm 1 mps 740 mmHg 80%
21:00 +22°C° 0.4 mm 1 mps 740 mmHg 85%
22:00 +22°C° 0 mm 1 mps 740 mmHg 86%
23:00 +21°C° 0 mm 1 mps 740 mmHg 88%

6 July, Monday

Time Temperature Precipitation Wind Pressure Humidity
00:00 +19°C° 0 mm 0 mps 740 mmHg 89%
01:00 +21°C° 0.4 mm 1 mps 740 mmHg 90%
02:00 +20°C° 0.4 mm 1 mps 740 mmHg 91%
03:00 +20°C° 0.4 mm 1 mps 740 mmHg 92%
04:00 +20°C° 0.1 mm 1 mps 740 mmHg 92%
05:00 +21°C° 0.1 mm 1 mps 740 mmHg 91%
06:00 +21°C° 0.1 mm 1 mps 740 mmHg 90%
07:00 +22°C° 0 mm 1 mps 740 mmHg 86%
08:00 +23°C° 0 mm 2 mps 740 mmHg 82%
09:00 +24°C° 0 mm 2 mps 740 mmHg 78%
10:00 +25°C° 0 mm 2 mps 740 mmHg 74%
11:00 +26°C° 0 mm 3 mps 740 mmHg 70%
12:00 +27°C° 0 mm 3 mps 740 mmHg 66%
13:00 +27°C° 0 mm 3 mps 740 mmHg 65%
14:00 +27°C° 0 mm 4 mps 739 mmHg 65%
15:00 +27°C° 0 mm 4 mps 739 mmHg 65%
16:00 +27°C° 0 mm 4 mps 739 mmHg 67%
17:00 +27°C° 0 mm 3 mps 739 mmHg 70%
18:00 +26°C° 0 mm 3 mps 739 mmHg 72%
19:00 +25°C° 0 mm 3 mps 739 mmHg 75%
20:00 +22°C° 0 mm 3 mps 740 mmHg 78%
21:00 +21°C° 0 mm 2 mps 740 mmHg 80%
22:00 +20°C° 0 mm 3 mps 740 mmHg 82%
23:00 +20°C° 0 mm 3 mps 740 mmHg 84%

7 July, Tuesday

Time Temperature Precipitation Wind Pressure Humidity
00:00 +19°C° 0 mm 3 mps 740 mmHg 86%
01:00 +19°C° 0 mm 2 mps 740 mmHg 88%
02:00 +19°C° 0 mm 2 mps 740 mmHg 90%
03:00 +19°C° 0 mm 2 mps 740 mmHg 92%
04:00 +19°C° 0 mm 2 mps 740 mmHg 91%
05:00 +21°C° 0 mm 1 mps 741 mmHg 90%
06:00 +21°C° 0 mm 1 mps 741 mmHg 90%
07:00 +23°C° 0 mm 1 mps 741 mmHg 85%
08:00 +24°C° 0 mm 1 mps 741 mmHg 81%
09:00 +25°C° 0 mm 2 mps 741 mmHg 77%
10:00 +26°C° 0 mm 2 mps 741 mmHg 74%
11:00 +27°C° 0 mm 3 mps 740 mmHg 71%
12:00 +28°C° 0 mm 3 mps 740 mmHg 68%
13:00 +28°C° 0 mm 3 mps 740 mmHg 67%
14:00 +28°C° 0 mm 3 mps 740 mmHg 66%
15:00 +29°C° 0 mm 3 mps 739 mmHg 64%
16:00 +28°C° 0 mm 3 mps 739 mmHg 67%
17:00 +28°C° 0 mm 3 mps 739 mmHg 70%
18:00 +28°C° 0 mm 2 mps 739 mmHg 73%
19:00 +26°C° 0 mm 2 mps 739 mmHg 76%
20:00 +24°C° 0 mm 2 mps 739 mmHg 80%
21:00 +23°C° 0 mm 1 mps 739 mmHg 83%
22:00 +22°C° 0.1 mm 1 mps 739 mmHg 84%
23:00 +22°C° 0.1 mm 1 mps 739 mmHg 86%
Show more